Snowfall_Accumulation
1.7 1.4 1.4 1.3 1.3 1.6 1.3 1.6 1.7 1.6 1.3 1.3 1.2 1.2 1.1 1.2 1.1 1.0 1.0 0.9 1.0 0.9 0.7 0.8 0.9 0.7 0.8 0.6 0.6 0.7 0.9 1.4 1.9 0.7 0.3 0.2 0.2 0.3 0.2 0.0 0.0 0.1 0.2
2.0 1.7 1.5 1.4 1.4 1.5 1.4 1.3 1.6 1.8 1.3 1.3 1.4 1.4 1.4 1.1 1.1 1.3 1.1 1.3 1.4 1.2 1.2 0.9 0.9 0.9 1.1 1.0 0.9 0.9 0.9 1.0 1.7 1.6 0.7 0.7 0.7 0.4 0.4 0.2 0.2 0.2 0.1
1.9 2.0 2.1 1.6 1.5 1.6 1.6 1.2 1.3 1.5 1.6 1.3 1.4 1.4 1.3 1.1 1.1 1.1 1.2 1.0 1.2 1.2 1.3 1.3 1.2 1.1 1.3 1.5 1.1 1.3 1.1 1.1 1.5 2.1 1.6 1.1 1.0 0.8 0.7 0.7 0.5 0.3 0.1
2.0 2.2 2.4 2.8 2.6 2.7 2.0 1.4 1.5 1.3 1.6 1.7 1.3 1.4 1.3 1.2 1.1 1.2 1.3 1.6 1.6 1.6 1.3 1.3 1.3 1.6 1.6 1.6 1.8 1.8 1.7 2.2 2.4 2.6 2.5 2.2 1.8 1.2 1.2 1.3 1.2 1.0 0.6
2.3 2.0 2.3 2.6 2.6 2.8 2.1 1.7 1.7 1.8 1.9 1.8 1.9 1.7 1.5 1.3 1.5 1.6 1.8 2.1 2.1 1.9 1.7 1.7 1.8 1.7 1.7 2.1 2.4 3.0 3.3 3.9 4.2 4.8 4.5 3.4 2.0 1.6 1.4 1.2 1.9 1.8 1.4
2.4 2.9 2.2 1.9 2.3 2.6 2.4 2.4 2.1 1.9 1.8 2.2 2.5 2.3 1.8 1.5 1.7 1.9 2.4 2.6 2.2 2.2 2.4 2.2 2.2 2.3 2.2 2.1 2.0 2.4 3.8 5.8 6.9 7.1 5.4 3.6 2.0 1.4 1.5 1.8 2.7 3.5 2.8
2.8 2.7 2.2 2.0 1.9 2.2 2.4 2.3 2.1 2.6 2.3 2.4 2.6 2.4 2.5 1.9 1.8 2.0 2.5 3.0 2.8 3.0 2.8 3.1 3.1 2.6 2.5 2.4 2.3 2.3 2.7 3.2 4.3 5.0 5.1 3.1 2.0 1.9 2.9 4.1 4.0 4.4 3.5
2.9 3.0 2.3 1.8 2.2 2.0 2.2 2.2 2.1 3.1 3.0 3.5 3.3 3.1 3.0 2.5 2.1 2.6 3.2 3.7 3.2 3.5 3.3 2.8 2.7 2.4 2.4 3.1 3.5 4.1 3.0 2.3 1.7 2.1 2.6 2.3 2.2 2.1 3.5 5.2 5.2 4.7 2.7
3.0 3.1 2.7 2.3 2.3 2.7 2.6 2.6 3.3 3.3 4.4 4.1 4.4 4.5 4.1 3.7 2.4 3.4 4.1 4.1 3.7 3.1 2.6 2.3 2.3 2.4 2.5 3.8 5.4 5.8 3.4 2.0 1.4 1.7 2.2 2.6 2.5 2.9 3.4 6.1 7.3 7.5 6.6
3.4 3.9 3.5 3.0 3.0 3.8 4.5 4.2 4.7 5.0 5.4 5.2 5.6 4.6 4.2 4.1 3.0 3.6 3.8 4.3 4.0 2.9 2.5 1.9 1.9 2.5 3.4 4.9 6.0 6.2 5.4 3.4 3.1 2.1 1.8 1.7 2.1 1.9 2.2 4.2 6.8 10.6 9.8
4.4 4.3 4.3 4.2 4.4 4.8 5.3 4.8 5.2 5.1 4.6 4.5 4.5 3.7 3.6 3.4 2.5 3.0 3.4 4.8 5.5 4.4 3.4 2.7 1.9 2.9 4.3 5.3 5.6 5.7 5.6 5.6 5.1 4.4 3.6 3.2 2.9 2.7 2.3 2.4 4.2 8.7 12.5
4.8 4.9 5.5 4.7 4.3 4.9 5.1 5.5 4.8 4.5 4.6 4.5 4.2 3.9 3.6 2.9 2.9 3.2 3.5 4.4 5.2 6.0 4.9 3.6 3.4 4.1 4.9 4.8 4.9 4.7 5.4 6.1 6.6 6.2 5.3 4.7 4.0 4.2 3.8 3.4 3.9 4.5 6.1
4.5 4.8 5.0 4.9 4.9 5.0 5.0 4.9 4.9 4.6 4.8 4.7 4.4 4.0 3.8 3.6 3.5 3.5 3.7 4.2 4.8 5.5 5.0 4.4 4.8 5.1 5.1 4.7 4.2 4.5 4.9 6.1 6.9 7.2 6.5 5.1 4.5 4.5 4.5 4.7 4.5 4.4 4.7
5.1 5.1 5.1 5.2 5.2 4.9 4.9 5.0 5.1 5.1 5.5 5.3 5.1 5.2 4.6 4.1 4.1 4.4 5.0 4.9 5.1 5.5 5.4 4.7 4.4 4.3 4.5 4.5 4.1 4.8 5.1 5.8 6.8 7.4 7.1 6.2 5.5 5.9 6.3 6.1 6.8 6.6 7.7
5.6 5.9 6.2 6.4 6.2 6.1 5.9 5.8 5.7 5.9 6.2 7.7 7.9 7.2 7.2 6.8 5.8 6.2 7.5 7.5 7.2 7.3 7.2 6.3 5.3 4.8 5.0 5.3 5.3 5.0 5.5 5.7 7.4 7.2 8.0 8.4 7.6 7.5 7.4 7.4 9.1 9.8 10.4
6.4 6.5 6.6 6.4 6.6 6.2 5.9 5.8 5.2 5.2 4.5 5.1 5.7 6.4 6.5 6.3 6.0 6.5 6.8 7.0 7.1 7.2 8.1 8.0 6.0 5.3 5.7 5.7 6.0 6.6 6.7 7.3 7.7 8.5 9.2 9.6 10.0 9.8 9.4 8.7 9.8 11.2 11.2
7.0 6.7 6.5 6.4 5.9 6.1 5.5 5.6 6.2 5.2 4.5 4.3 4.3 4.9 5.5 5.5 5.8 6.2 6.4 6.6 6.6 6.7 8.5 7.4 6.2 6.0 6.3 6.4 6.7 7.2 7.8 7.5 8.3 9.8 10.7 11.4 12.2 11.8 10.9 10.7 10.8 11.1 10.6
6.3 6.6 6.8 6.5 6.6 6.2 6.2 5.7 5.8 6.0 6.1 5.4 4.5 4.3 4.5 4.7 5.3 5.3 5.6 5.9 6.8 6.2 7.1 7.2 7.2 6.9 6.9 7.1 7.5 8.0 8.0 8.2 9.3 9.8 10.7 12.2 13.4 14.3 13.3 12.0 11.0 11.5 11.9
6.6 7.3 7.5 7.4 7.4 7.2 7.4 7.0 6.7 6.1 6.0 6.3 6.0 5.7 4.6 4.4 3.9 4.2 4.7 6.1 7.0 7.3 7.0 7.2 7.8 8.1 8.4 8.5 8.6 8.8 9.4 9.8 10.0 11.2 11.7 12.6 14.1 15.9 15.2 13.2 12.7 12.3 13.2
6.5 7.4 8.0 8.3 8.2 8.2 7.7 7.5 7.8 7.3 6.9 6.4 6.3 6.8 6.5 6.6 7.2 6.4 5.9 6.2 6.8 7.0 6.9 7.4 7.6 8.1 8.6 9.1 9.7 9.9 10.1 10.1 10.6 11.7 12.3 12.9 13.5 15.6 16.1 14.7 14.4 14.4 13.5
6.2 6.8 7.1 7.4 7.7 8.5 8.5 8.7 8.5 8.6 7.9 7.4 7.3 7.3 8.0 8.9 7.8 6.9 7.1 7.5 7.6 7.8 8.0 8.0 7.8 8.3 8.5 9.2 10.1 10.3 10.5 10.3 10.4 12.0 13.3 13.6 14.2 14.9 14.7 15.3 15.4 15.0 15.1
6.0 6.4 6.6 7.1 7.6 8.2 8.6 8.8 8.9 9.0 8.5 8.0 7.8 7.6 7.4 7.7 7.4 7.0 7.0 7.5 7.6 8.2 8.9 9.5 8.9 8.4 9.4 10.9 11.8 12.5 11.6 10.2 10.3 12.0 13.4 13.7 14.3 14.9 15.4 16.5 16.3 16.1 15.9
5.7 6.0 6.5 6.7 7.3 7.9 8.3 8.4 8.7 8.6 8.5 8.2 7.8 7.7 7.5 7.4 7.2 7.4 7.5 7.7 7.6 7.9 7.9 8.6 9.2 8.6 8.4 10.0 11.5 14.3 15.5 12.8 11.7 13.8 17.3 17.5 16.4 16.3 16.7 16.7 15.6 15.8 14.9
5.9 6.2 6.9 7.0 7.4 7.8 8.0 8.0 8.1 8.3 8.3 8.1 7.9 8.2 8.2 8.3 7.8 7.9 8.1 8.1 8.0 7.8 7.7 8.3 8.9 8.8 8.7 9.7 10.5 11.5 12.9 14.4 17.6 20.2 21.4 22.4 19.5 16.8 16.4 16.1 14.8 14.4 14.6
6.4 6.6 7.2 7.6 7.9 8.1 8.3 8.3 8.0 7.9 7.9 8.1 8.2 8.5 8.3 8.0 8.2 8.3 8.1 8.1 8.1 8.0 7.4 7.6 8.2 8.7 8.7 8.9 9.3 10.1 10.4 13.2 18.0 21.9 22.8 21.6 18.8 16.2 16.1 15.7 15.0 14.8 14.7
6.7 7.0 7.3 7.6 7.9 8.2 8.4 8.3 8.0 7.9 8.2 8.2 8.1 8.2 8.3 8.2 8.1 7.9 8.1 8.4 8.3 7.9 7.5 7.8 8.2 8.6 8.7 8.6 8.4 9.2 11.0 12.5 13.8 15.3 20.0 22.1 19.7 16.5 16.2 16.7 15.4 15.0 14.8